Regional Weather Roundup
Issued by NWS Portland, ME

Home | Current Version | Previous Version | Text Only | Print | Product List | Glossary On
Versions: 1 2 3 4 5 6 7 8 9 10 11 12 13 14 15 16 17 18 19 20 21 22 23 24 25 26 27 28 29 30 31 32 33 34 35 36 37 38 39 40 41 42 43 44 45 46 47 48 49 50
000
ASUS41 KGYX 230910
RWRGYX
WEATHER ROUNDUP FOR MAINE AND NEW HAMPSHIRE
NATIONAL WEATHER SERVICE GRAY ME
500 AM EDT SAT MAY 23 2015

MEZ002-005-006-010-012-015-018-020-021-024-026-027-029-231000-
MAINE

CITY           SKY/WX    TMP DP  RH WIND       PRES   REMARKS
PORTLAND       CLEAR     40  19  43 SW6       30.15R
BAR HARBOR     MOCLDY    39  27  60 W8G17     30.05R
WISCASSET      CLEAR     38  21  50 W5        30.13R
ROCKLAND       CLEAR     39  19  45 W10       30.08R
FRYEBURG       CLEAR     39  19  44 W9G21     30.15R
LEWISTONAUBURN CLEAR     37  18  44 W6        30.12R
AUGUSTA        CLEAR     37  20  50 W8        30.10R
WATERVILLE     CLEAR     37  19  48 W7        30.07R
BANGOR         PTCLDY    37  23  56 W8        30.06R
GREENVILLE       N/A     31  20  63 NW8       29.97S
MILLINOCKET    CLEAR     38  19  46 W14G28    29.99R
HOULTON        CLOUDY    37  33  85 NW8       29.93R
PRESQUE ISLE   CLOUDY    34  28  80 W12       29.93R
FRENCHVILLE    LGT RAIN  34  26  72 NW12      29.90R
CARIBOU        LGT SNOW  34  32  92 VRB5      29.91R FOG
$$

NHZ002-005-008-009-011-012-014-231000-
NEW HAMPSHIRE

CITY           SKY/WX    TMP DP  RH WIND       PRES   REMARKS
PORTSMOUTH     PTCLDY    41  19  41 W7        30.18R
ROCHESTER      CLEAR     39  19  44 VRB5      30.17R
NASHUA         CLEAR     41  26  55 NW8       30.22R
MANCHESTER     CLEAR     42  22  44 W7        30.20R
CONCORD        CLEAR     39  21  48 NW9       30.19R
LACONIA        CLEAR     37  19  48 W7        30.16R
PLYMOUTH       FAIR      37  26  64 NW7       30.17R
BERLIN         CLEAR     34  20  56 VRB6      30.12R
WHITEFIELD     CLEAR     32  21  64 SW3       30.16R
JAFFREY        CLEAR     35  23  61 CALM      30.21R
KEENE          CLEAR     36  28  75 CALM      30.23R
LEBANON        CLEAR     36  21  54 W5        30.21R
MT WASHINGTON  FOG       10  10 100 NW54G63     N/A  VSB 1/16WCI -17
$$

VTZ005-007-008-231000-
VERMONT

CITY           SKY/WX    TMP DP  RH WIND       PRES   REMARKS
ST JOHNSBURY     N/A     36  22  56 MISG      30.18R
MONTPELIER     CLEAR     34  20  56 NW13      30.23R
BURLINGTON     CLEAR     39  23  52 W8        30.24R
$$

MAZ007-012-024-CTZ003-RIZ002-NYZ038-NYZ072-231000-
SOUTHERN NEW ENGLAND AND NY

CITY           SKY/WX    TMP DP  RH WIND       PRES   REMARKS
BOSTON         PTCLDY    45  27  49 NW15G22   30.22R
WORCESTER      CLEAR     40  28  62 NW9       30.21R
NANTUCKET      CLEAR     52  38  58 N16       30.16R
PROVIDENCE     MOCLDY    48  33  56 N10G16    30.23R
HARTFORD       PTCLDY    44  28  53 W8        30.26R
ALBANY         CLEAR     39  23  52 NW8       30.29R
NEW YORK CITY  CLEAR     52  28  39 NW15      30.29R
$$

ANZ081-ANZ082-ANZ150-NHZ014-MEZ023>029-231000-
COASTAL MARINE OBSERVATIONS

STATION/POSITION TIME  TEMP    WIND        PRES    WAVE
                       AIR SEA DIR/SP/G            HT/PER
                 (UTC) (F)     (DEG/KT/KT) (MB)    (FT/S)
MOUNT DESERT ROC 0900   42     290/ 28/ 31   N/A
MATINICUS ROCK   0900   41     310/ 27/ 29   N/A
ISLE OF SHOALS   0900   43     300/ 19/ 22   N/A
JEFFREYS LEDGE   0803      47                N/A     3/ 4
CASHES LEDGE BUO 0850   44 48                N/A     6/ 5
GEORGES BANK BUO 0850   49 46  310/ 12/ 16   N/A     5/ 8
$$

.............KEY..............
   WCI - WIND CHILL
   TC  - TEMPERATURE IN CELSIUS
   VSB - VISIBILITY IN MILES
   HX  - HEAT INDEX
   FAIR- INDICATES FEW OR NO CLOUDS BELOW 12,000 FT, WITH NO
         SIGNIFICANT WEATHER AND/OR OBSTRUCTIONS TO VISIBILITY.




USA.gov is the U.S. government's official web portal to all federal, state and local government web resources and services.